Year,Month,Day,Hour,Minute,Value (Times are PST for temperature in C)
2017,01,04,00,00,-8.70
2017,01,04,00,01,-8.70
2017,01,04,00,02,-8.80
2017,01,04,00,03,-8.80
2017,01,04,00,04,-8.80
2017,01,04,00,05,-8.80
2017,01,04,00,06,-8.80
2017,01,04,00,07,-8.80
2017,01,04,00,08,-8.80
2017,01,04,00,09,-8.80
2017,01,04,00,10,-8.80
2017,01,04,00,11,-8.80
2017,01,04,00,12,-8.80
2017,01,04,00,13,-8.80
2017,01,04,00,14,-8.80
2017,01,04,00,15,-8.80
2017,01,04,00,16,-8.80
2017,01,04,00,17,-8.80
2017,01,04,00,18,-8.80
2017,01,04,00,19,-8.80
2017,01,04,00,20,-8.80
2017,01,04,00,21,-8.80
2017,01,04,00,22,-8.80
2017,01,04,00,23,-8.80
2017,01,04,00,24,-8.80
2017,01,04,00,25,-8.80
2017,01,04,00,26,-8.80
2017,01,04,00,27,-8.90
2017,01,04,00,28,-8.90
2017,01,04,00,29,-8.90
2017,01,04,00,30,-8.90
2017,01,04,00,31,-8.90
2017,01,04,00,32,-9.00
2017,01,04,00,33,-9.00
2017,01,04,00,34,-9.00
2017,01,04,00,35,-9.10
2017,01,04,00,36,-9.10
2017,01,04,00,37,-9.10
2017,01,04,00,38,-9.10
2017,01,04,00,39,-9.10
2017,01,04,00,40,-9.10
2017,01,04,00,41,-9.10
2017,01,04,00,42,-9.10
2017,01,04,00,43,-9.10
2017,01,04,00,44,-9.10
2017,01,04,00,45,-9.10
2017,01,04,00,46,-9.10
2017,01,04,00,47,-9.10
2017,01,04,00,48,-9.10
2017,01,04,00,49,-9.10
2017,01,04,00,50,-9.10
2017,01,04,00,51,-9.10
2017,01,04,00,52,-9.20
2017,01,04,00,53,-9.20
2017,01,04,00,54,-9.20
2017,01,04,00,55,-9.20
2017,01,04,00,56,-9.20
2017,01,04,00,57,-9.20
2017,01,04,00,58,-9.20
2017,01,04,00,59,-9.20
2017,01,04,01,00,-9.20
2017,01,04,01,01,-9.20
2017,01,04,01,02,-9.20
2017,01,04,01,03,-9.20
2017,01,04,01,04,-9.20
2017,01,04,01,05,-9.20
2017,01,04,01,06,-9.20
2017,01,04,01,07,-9.20
2017,01,04,01,08,-9.20
2017,01,04,01,09,-9.20
2017,01,04,01,10,-9.20
2017,01,04,01,11,-9.20
2017,01,04,01,12,-9.20
2017,01,04,01,13,-9.20
2017,01,04,01,14,-9.20
2017,01,04,01,15,-9.20
2017,01,04,01,16,-9.20
2017,01,04,01,17,-9.20
2017,01,04,01,18,-9.20
2017,01,04,01,19,-9.20
2017,01,04,01,20,-9.30
2017,01,04,01,21,-9.30
2017,01,04,01,22,-9.30
2017,01,04,01,23,-9.30
2017,01,04,01,24,-9.30
2017,01,04,01,25,-9.30
2017,01,04,01,26,-9.30
2017,01,04,01,27,-9.30
2017,01,04,01,28,-9.40
2017,01,04,01,29,-9.40
2017,01,04,01,30,-9.40
2017,01,04,01,31,-9.40
2017,01,04,01,32,-9.30
2017,01,04,01,33,-9.30
2017,01,04,01,34,-9.30
2017,01,04,01,35,-9.30
2017,01,04,01,36,-9.30
2017,01,04,01,37,-9.30
2017,01,04,01,38,-9.30
2017,01,04,01,39,-9.30
2017,01,04,01,40,-9.40
2017,01,04,01,41,-9.40
2017,01,04,01,42,-9.40
2017,01,04,01,43,-9.40
2017,01,04,01,44,-9.40
2017,01,04,01,45,-9.40
2017,01,04,01,46,-9.40
2017,01,04,01,47,-9.40
2017,01,04,01,48,-9.40
2017,01,04,01,49,-9.30
2017,01,04,01,50,-9.30
2017,01,04,01,51,-9.30
2017,01,04,01,52,-9.30
2017,01,04,01,53,-9.30
2017,01,04,01,54,-9.30
2017,01,04,01,55,-9.30
2017,01,04,01,56,-9.30
2017,01,04,01,57,-9.30
2017,01,04,01,58,-9.30
2017,01,04,01,59,-9.30
2017,01,04,02,00,-9.30
2017,01,04,02,01,-9.30
2017,01,04,02,02,-9.40
2017,01,04,02,03,-9.40
2017,01,04,02,04,-9.40
2017,01,04,02,05,-9.40
2017,01,04,02,06,-9.40
2017,01,04,02,07,-9.40
2017,01,04,02,08,-9.40
2017,01,04,02,09,-9.40
2017,01,04,02,10,-9.40
2017,01,04,02,11,-9.40
2017,01,04,02,12,-9.40
2017,01,04,02,13,-9.40
2017,01,04,02,14,-9.40
2017,01,04,02,15,-9.40
2017,01,04,02,16,-9.40
2017,01,04,02,17,-9.40
2017,01,04,02,18,-9.40
2017,01,04,02,19,-9.40
2017,01,04,02,20,-9.40
2017,01,04,02,21,-9.40
2017,01,04,02,22,-9.40
2017,01,04,02,23,-9.40
2017,01,04,02,24,-9.40
2017,01,04,02,25,-9.40
2017,01,04,02,26,-9.40
2017,01,04,02,27,-9.40
2017,01,04,02,28,-9.40
2017,01,04,02,29,-9.50
2017,01,04,02,30,-9.40
2017,01,04,02,31,-9.50
2017,01,04,02,32,-9.40
2017,01,04,02,33,-9.50
2017,01,04,02,34,-9.40
2017,01,04,02,35,-9.40
2017,01,04,02,36,-9.50
2017,01,04,02,37,-9.50
2017,01,04,02,38,-9.50
2017,01,04,02,39,-9.50
2017,01,04,02,40,-9.50
2017,01,04,02,41,-9.60
2017,01,04,02,42,-9.60
2017,01,04,02,43,-9.60
2017,01,04,02,44,-9.60
2017,01,04,02,45,-9.60
2017,01,04,02,46,-9.60
2017,01,04,02,47,-9.60
2017,01,04,02,48,-9.60
2017,01,04,02,49,-9.60
2017,01,04,02,50,-9.60
2017,01,04,02,51,-9.60
2017,01,04,02,52,-9.60
2017,01,04,02,53,-9.60
2017,01,04,02,54,-9.60
2017,01,04,02,55,-9.60
2017,01,04,02,56,-9.60
2017,01,04,02,57,-9.60
2017,01,04,02,58,-9.60
2017,01,04,02,59,-9.60
2017,01,04,03,00,-9.50
2017,01,04,03,01,-9.50
2017,01,04,03,02,-9.50
2017,01,04,03,03,-9.50
2017,01,04,03,04,-9.50
2017,01,04,03,05,-9.40
2017,01,04,03,06,-9.40
2017,01,04,03,07,-9.40
2017,01,04,03,08,-9.40
2017,01,04,03,09,-9.40
2017,01,04,03,10,-9.40
2017,01,04,03,11,-9.40
2017,01,04,03,12,-9.40
2017,01,04,03,13,-9.40
2017,01,04,03,14,-9.30
2017,01,04,03,15,-9.30
2017,01,04,03,16,-9.30
2017,01,04,03,17,-9.30
2017,01,04,03,18,-9.30
2017,01,04,03,19,-9.30
2017,01,04,03,20,-9.30
2017,01,04,03,21,-9.30
2017,01,04,03,22,-9.30
2017,01,04,03,23,-9.30
2017,01,04,03,24,-9.30
2017,01,04,03,25,-9.30
2017,01,04,03,26,-9.30
2017,01,04,03,27,-9.30
2017,01,04,03,28,-9.40
2017,01,04,03,29,-9.40
2017,01,04,03,30,-9.40
2017,01,04,03,31,-9.40
2017,01,04,03,32,-9.50
2017,01,04,03,33,-9.50
2017,01,04,03,34,-9.50
2017,01,04,03,35,-9.60
2017,01,04,03,36,-9.60
2017,01,04,03,37,-9.60
2017,01,04,03,38,-9.60
2017,01,04,03,39,-9.70
2017,01,04,03,40,-9.70
2017,01,04,03,41,-9.70
2017,01,04,03,42,-9.70
2017,01,04,03,43,-9.70
2017,01,04,03,44,-9.70
2017,01,04,03,45,-9.70
2017,01,04,03,46,-9.80
2017,01,04,03,47,-9.80
2017,01,04,03,48,-9.70
2017,01,04,03,49,-9.70
2017,01,04,03,50,-9.70
2017,01,04,03,51,-9.70
2017,01,04,03,52,-9.70
2017,01,04,03,53,-9.70
2017,01,04,03,54,-9.70
2017,01,04,03,55,-9.70
2017,01,04,03,56,-9.70
2017,01,04,03,57,-9.70
2017,01,04,03,58,-9.70
2017,01,04,03,59,-9.70
2017,01,04,04,00,-9.70
2017,01,04,04,01,-9.70
2017,01,04,04,02,-9.70
2017,01,04,04,03,-9.70
2017,01,04,04,04,-9.70
2017,01,04,04,05,-9.70
2017,01,04,04,06,-9.70
2017,01,04,04,07,-9.70
2017,01,04,04,08,-9.70
2017,01,04,04,09,-9.70
2017,01,04,04,10,-9.70
2017,01,04,04,11,-9.70
2017,01,04,04,12,-9.70
2017,01,04,04,13,-9.70
2017,01,04,04,14,-9.70
2017,01,04,04,15,-9.70
2017,01,04,04,16,-9.80
2017,01,04,04,17,-9.80
2017,01,04,04,18,-9.80
2017,01,04,04,19,-9.80
2017,01,04,04,20,-9.80
2017,01,04,04,21,-9.80
2017,01,04,04,22,-9.80
2017,01,04,04,23,-9.80
2017,01,04,04,24,-9.80
2017,01,04,04,25,-9.80
2017,01,04,04,26,-9.80
2017,01,04,04,27,-9.80
2017,01,04,04,28,-9.80
2017,01,04,04,29,-9.80
2017,01,04,04,30,-9.80
2017,01,04,04,31,-9.80
2017,01,04,04,32,-9.80
2017,01,04,04,33,-9.80
2017,01,04,04,34,-9.80
2017,01,04,04,35,-9.80
2017,01,04,04,36,-9.80
2017,01,04,04,37,-9.80
2017,01,04,04,38,-9.80
2017,01,04,04,39,-9.80
2017,01,04,04,40,-9.80
2017,01,04,04,41,-9.80
2017,01,04,04,42,-9.80
2017,01,04,04,43,-9.80
2017,01,04,04,44,-9.80
2017,01,04,04,45,-9.80
2017,01,04,04,46,-9.80
2017,01,04,04,47,-9.80
2017,01,04,04,48,-9.80
2017,01,04,04,49,-9.80
2017,01,04,04,50,-9.80
2017,01,04,04,51,-9.80
2017,01,04,04,52,-9.80
2017,01,04,04,53,-9.80
2017,01,04,04,54,-9.80
2017,01,04,04,55,-9.80
2017,01,04,04,56,-9.80
2017,01,04,04,57,-9.80
2017,01,04,04,58,-9.80
2017,01,04,04,59,-9.80
2017,01,04,05,00,-9.80
2017,01,04,05,01,-9.80
2017,01,04,05,02,-9.80
2017,01,04,05,03,-9.80
2017,01,04,05,04,-9.80
2017,01,04,05,05,-9.80
2017,01,04,05,06,-9.80
2017,01,04,05,07,-9.80
2017,01,04,05,08,-9.80
2017,01,04,05,09,-9.80
2017,01,04,05,10,-9.80
2017,01,04,05,11,-9.80
2017,01,04,05,12,-9.80
2017,01,04,05,13,-9.80
2017,01,04,05,14,-9.80
2017,01,04,05,15,-9.80
2017,01,04,05,16,-9.80
2017,01,04,05,17,-9.80
2017,01,04,05,18,-9.80
2017,01,04,05,19,-9.80
2017,01,04,05,20,-9.70
2017,01,04,05,21,-9.70
2017,01,04,05,22,-9.70
2017,01,04,05,23,-9.70
2017,01,04,05,24,-9.70
2017,01,04,05,25,-9.70
2017,01,04,05,26,-9.70
2017,01,04,05,27,-9.70
2017,01,04,05,28,-9.70
2017,01,04,05,29,-9.70
2017,01,04,05,30,-9.70
2017,01,04,05,31,-9.70
2017,01,04,05,32,-9.70
2017,01,04,05,33,-9.70
2017,01,04,05,34,-9.70
2017,01,04,05,35,-9.80
2017,01,04,05,36,-9.80
2017,01,04,05,37,-9.80
2017,01,04,05,38,-9.80
2017,01,04,05,39,-9.80
2017,01,04,05,40,-9.80
2017,01,04,05,41,-9.80
2017,01,04,05,42,-9.80
2017,01,04,05,43,-9.80
2017,01,04,05,44,-9.80
2017,01,04,05,45,-9.80
2017,01,04,05,46,-9.80
2017,01,04,05,47,-9.80
2017,01,04,05,48,-9.80
2017,01,04,05,49,-9.80
2017,01,04,05,50,-9.80
2017,01,04,05,51,-9.80
2017,01,04,05,52,-9.80
2017,01,04,05,53,-9.80
2017,01,04,05,54,-9.80
2017,01,04,05,55,-9.80
2017,01,04,05,56,-9.80
2017,01,04,05,57,-9.80
2017,01,04,05,58,-9.80
2017,01,04,05,59,-9.80
2017,01,04,06,00,-9.80
2017,01,04,06,01,-9.80
2017,01,04,06,02,-9.80
2017,01,04,06,03,-9.80
2017,01,04,06,04,-9.80
2017,01,04,06,05,-9.80
2017,01,04,06,06,-9.90
2017,01,04,06,07,-9.90
2017,01,04,06,08,-9.90
2017,01,04,06,09,-9.90
2017,01,04,06,10,-9.90
2017,01,04,06,11,-9.90
2017,01,04,06,12,-9.90
2017,01,04,06,13,-9.90
2017,01,04,06,14,-9.90
2017,01,04,06,15,-9.90
2017,01,04,06,16,-10.00
2017,01,04,06,17,-9.90
2017,01,04,06,18,-9.90
2017,01,04,06,19,-9.90
2017,01,04,06,20,-9.90
2017,01,04,06,21,-9.90
2017,01,04,06,22,-9.90
2017,01,04,06,23,-9.90
2017,01,04,06,24,-9.90
2017,01,04,06,25,-9.90
2017,01,04,06,26,-9.90
2017,01,04,06,27,-10.00
2017,01,04,06,28,-10.00
2017,01,04,06,29,-10.00
2017,01,04,06,30,-10.00
2017,01,04,06,31,-10.00
2017,01,04,06,32,-10.00
2017,01,04,06,33,-10.00
2017,01,04,06,34,-10.10
2017,01,04,06,35,-10.10
2017,01,04,06,36,-10.10
2017,01,04,06,37,-10.10
2017,01,04,06,38,-10.10
2017,01,04,06,39,-10.10
2017,01,04,06,40,-10.10
2017,01,04,06,41,-10.10
2017,01,04,06,42,-10.10
2017,01,04,06,43,-10.10
2017,01,04,06,44,-10.10
2017,01,04,06,45,-10.10
2017,01,04,06,46,-10.10
2017,01,04,06,47,-10.10
2017,01,04,06,48,-10.10
2017,01,04,06,49,-10.00
2017,01,04,06,50,-10.00
2017,01,04,06,51,-10.00
2017,01,04,06,52,-10.00
2017,01,04,06,53,-10.00
2017,01,04,06,54,-10.00
2017,01,04,06,55,-10.00
2017,01,04,06,56,-10.00
2017,01,04,06,57,-10.00
2017,01,04,06,58,-10.00
2017,01,04,06,59,-10.00
2017,01,04,07,00,-10.10
2017,01,04,07,01,-10.10
2017,01,04,07,02,-10.10
2017,01,04,07,03,-10.10
2017,01,04,07,04,-10.10
2017,01,04,07,05,-10.10
2017,01,04,07,06,-10.10
2017,01,04,07,07,-10.10
2017,01,04,07,08,-10.10
2017,01,04,07,09,-10.10
2017,01,04,07,10,-10.10
2017,01,04,07,11,-10.10
2017,01,04,07,12,-10.10
2017,01,04,07,13,-10.10
2017,01,04,07,14,-10.10
2017,01,04,07,15,-10.10
2017,01,04,07,16,-10.10
2017,01,04,07,17,-10.10
2017,01,04,07,18,-10.10
2017,01,04,07,19,-10.10
2017,01,04,07,20,-10.10
2017,01,04,07,21,-10.10
2017,01,04,07,22,-10.10
2017,01,04,07,23,-10.10
2017,01,04,07,24,-10.10
2017,01,04,07,25,-10.10
2017,01,04,07,26,-10.10
2017,01,04,07,27,-10.10
2017,01,04,07,28,-10.10
2017,01,04,07,29,-10.10
2017,01,04,07,30,-10.20
2017,01,04,07,31,-10.20
2017,01,04,07,32,-10.20
2017,01,04,07,33,-10.20
2017,01,04,07,34,-10.20
2017,01,04,07,35,-10.20
2017,01,04,07,36,-10.20
2017,01,04,07,37,-10.20
2017,01,04,07,38,-10.20
2017,01,04,07,39,-10.20
2017,01,04,07,40,-10.20
2017,01,04,07,41,-10.10
2017,01,04,07,42,-10.10
2017,01,04,07,43,-10.10
2017,01,04,07,44,-10.10
2017,01,04,07,45,-10.10
2017,01,04,07,46,-10.10
2017,01,04,07,47,-10.10
2017,01,04,07,48,-10.10
2017,01,04,07,49,-10.10
2017,01,04,07,50,-10.10
2017,01,04,07,51,-10.10
2017,01,04,07,52,-10.10
2017,01,04,07,53,-10.10
2017,01,04,07,54,-10.10
2017,01,04,07,55,-10.10
2017,01,04,07,56,-10.10
2017,01,04,07,57,-10.10
2017,01,04,07,58,-10.10
2017,01,04,07,59,-10.10
2017,01,04,08,00,-10.10
2017,01,04,08,01,-10.10
2017,01,04,08,02,-10.10
2017,01,04,08,03,-10.10
2017,01,04,08,04,-10.10
2017,01,04,08,05,-10.10
2017,01,04,08,06,-10.10
2017,01,04,08,07,-10.10
2017,01,04,08,08,-10.00
2017,01,04,08,09,-9.90
2017,01,04,08,10,-9.90
2017,01,04,08,11,-9.80
2017,01,04,08,12,-9.80
2017,01,04,08,13,-9.80
2017,01,04,08,14,-9.70
2017,01,04,08,15,-9.70
2017,01,04,08,16,-9.60
2017,01,04,08,17,-9.60
2017,01,04,08,18,-9.50
2017,01,04,08,19,-9.50
2017,01,04,08,20,-9.40
2017,01,04,08,21,-9.40
2017,01,04,08,22,-9.40
2017,01,04,08,23,-9.30
2017,01,04,08,24,-9.30
2017,01,04,08,25,-9.30
2017,01,04,08,26,-9.30
2017,01,04,08,27,-9.30
2017,01,04,08,28,-9.40
2017,01,04,08,29,-9.40
2017,01,04,08,30,-9.40
2017,01,04,08,31,-9.40
2017,01,04,08,32,-9.40
2017,01,04,08,33,-9.50
2017,01,04,08,34,-9.60
2017,01,04,08,35,-9.60
2017,01,04,08,36,-9.60
2017,01,04,08,37,-9.70
2017,01,04,08,38,-9.70
2017,01,04,08,39,-9.70
2017,01,04,08,40,-9.60
2017,01,04,08,41,-9.60
2017,01,04,08,42,-9.60
2017,01,04,08,43,-9.60
2017,01,04,08,44,-9.60
2017,01,04,08,45,-9.60
2017,01,04,08,46,-9.60
2017,01,04,08,47,-9.50
2017,01,04,08,48,-9.50
2017,01,04,08,49,-9.50
2017,01,04,08,50,-9.40
2017,01,04,08,51,-9.40
2017,01,04,08,52,-9.40
2017,01,04,08,53,-9.40
2017,01,04,08,54,-9.40
2017,01,04,08,55,-9.30
2017,01,04,08,56,-9.30
2017,01,04,08,57,-9.30
2017,01,04,08,58,-9.30
2017,01,04,08,59,-9.30
2017,01,04,09,00,-9.30
2017,01,04,09,01,-9.30
2017,01,04,09,02,-9.30
2017,01,04,09,03,-9.20
2017,01,04,09,04,-9.20
2017,01,04,09,05,-9.20
2017,01,04,09,06,-9.20
2017,01,04,09,07,-9.20
2017,01,04,09,08,-9.10
2017,01,04,09,09,-9.10
2017,01,04,09,10,-9.00
2017,01,04,09,11,-9.00
2017,01,04,09,12,-8.90
2017,01,04,09,13,-8.90
2017,01,04,09,14,-8.90
2017,01,04,09,15,-8.80
2017,01,04,09,16,-8.80
2017,01,04,09,17,-8.70
2017,01,04,09,18,-8.70
2017,01,04,09,19,-8.60
2017,01,04,09,20,-8.60
2017,01,04,09,21,-8.50
2017,01,04,09,22,-8.50
2017,01,04,09,23,-8.40
2017,01,04,09,24,-8.40
2017,01,04,09,25,-8.40
2017,01,04,09,26,-8.30
2017,01,04,09,27,-8.30
2017,01,04,09,28,-8.30
2017,01,04,09,29,-8.30
2017,01,04,09,30,-8.20
2017,01,04,09,31,-8.10
2017,01,04,09,32,-8.00
2017,01,04,09,33,-8.00
2017,01,04,09,34,-7.90
2017,01,04,09,35,-7.90
2017,01,04,09,36,-7.80
2017,01,04,09,37,-7.80
2017,01,04,09,38,-7.80
2017,01,04,09,39,-7.80
2017,01,04,09,40,-7.80
2017,01,04,09,41,-7.70
2017,01,04,09,42,-7.70
2017,01,04,09,43,-7.60
2017,01,04,09,44,-7.60
2017,01,04,09,45,-7.50
2017,01,04,09,46,-7.50
2017,01,04,09,47,-7.40
2017,01,04,09,48,-7.40
2017,01,04,09,49,-7.30
2017,01,04,09,50,-7.20
2017,01,04,09,51,-7.20
2017,01,04,09,52,-7.10
2017,01,04,09,53,-7.00
2017,01,04,09,54,-7.00
2017,01,04,09,55,-6.90
2017,01,04,09,56,-6.90
2017,01,04,09,57,-6.80
2017,01,04,09,58,-6.70
2017,01,04,09,59,-6.70
2017,01,04,10,00,-6.60
2017,01,04,10,01,-6.50
2017,01,04,10,02,-6.50
2017,01,04,10,03,-6.40
2017,01,04,10,04,-6.40
2017,01,04,10,05,-6.30
2017,01,04,10,06,-6.20
2017,01,04,10,07,-6.10
2017,01,04,10,08,-6.00
2017,01,04,10,09,-6.00
2017,01,04,10,10,-5.90
2017,01,04,10,11,-5.80
2017,01,04,10,12,-5.70
2017,01,04,10,13,-5.70
2017,01,04,10,14,-5.60
2017,01,04,10,15,-5.60
2017,01,04,10,16,-5.60
2017,01,04,10,17,-5.60
2017,01,04,10,18,-5.50
2017,01,04,10,19,-5.50
2017,01,04,10,20,-5.40
2017,01,04,10,21,-5.40
2017,01,04,10,22,-5.30
2017,01,04,10,23,-5.30
2017,01,04,10,24,-5.30
2017,01,04,10,25,-5.20
2017,01,04,10,26,-5.20
2017,01,04,10,27,-5.20
2017,01,04,10,28,-5.20
2017,01,04,10,29,-5.20
2017,01,04,10,30,-5.10
2017,01,04,10,31,-5.10
2017,01,04,10,32,-5.00
2017,01,04,10,33,-5.00
2017,01,04,10,34,-5.00
2017,01,04,10,35,-4.90
2017,01,04,10,36,-4.80
2017,01,04,10,37,-4.70
2017,01,04,10,38,-4.60
2017,01,04,10,39,-4.50
2017,01,04,10,40,-4.40
2017,01,04,10,41,-4.40
2017,01,04,10,42,-4.30
2017,01,04,10,43,-4.20
2017,01,04,10,44,-4.10
2017,01,04,10,45,-4.00
2017,01,04,10,46,-4.00
2017,01,04,10,47,-3.90
2017,01,04,10,48,-3.80
2017,01,04,10,49,-3.70
2017,01,04,10,50,-3.60
2017,01,04,10,51,-3.50
2017,01,04,10,52,-3.40
2017,01,04,10,53,-3.30
2017,01,04,10,54,-3.20
2017,01,04,10,55,-3.10
2017,01,04,10,56,-3.00
2017,01,04,10,57,-3.00
2017,01,04,10,58,-2.90
2017,01,04,10,59,-2.80
2017,01,04,11,00,-2.70
2017,01,04,11,01,-2.70
2017,01,04,11,02,-2.70
2017,01,04,11,03,-2.60
2017,01,04,11,04,-2.60
2017,01,04,11,05,-2.60
2017,01,04,11,06,-2.50
2017,01,04,11,07,-2.50
2017,01,04,11,08,-2.40
2017,01,04,11,09,-2.40
2017,01,04,11,10,-2.30
2017,01,04,11,11,-2.30
2017,01,04,11,12,-2.20
2017,01,04,11,13,-2.10
2017,01,04,11,14,-2.00
2017,01,04,11,15,-1.90
2017,01,04,11,16,-1.80
2017,01,04,11,17,-1.70
2017,01,04,11,18,-1.70
2017,01,04,11,19,-1.60
2017,01,04,11,20,-1.50
2017,01,04,11,21,-1.40
2017,01,04,11,22,-1.40
2017,01,04,11,23,-1.40
2017,01,04,11,24,-1.50
2017,01,04,11,25,-1.40
2017,01,04,11,26,-1.40
2017,01,04,11,27,-1.40
2017,01,04,11,28,-1.30
2017,01,04,11,29,-1.30
2017,01,04,11,30,-1.20
2017,01,04,11,31,-1.10
2017,01,04,11,32,-1.10
2017,01,04,11,33,-1.00
2017,01,04,11,34,-0.90
2017,01,04,11,35,-0.90
2017,01,04,11,36,-0.80
2017,01,04,11,37,-0.80
2017,01,04,11,38,-0.70
2017,01,04,11,39,-0.60
2017,01,04,11,40,-0.60
2017,01,04,11,41,-0.50
2017,01,04,11,42,-0.40
2017,01,04,11,43,-0.30
2017,01,04,11,44,-0.30
2017,01,04,11,45,-0.20
2017,01,04,11,46,-0.20
2017,01,04,11,47,-0.20
2017,01,04,11,48,-0.10
2017,01,04,11,49,-0.10
2017,01,04,11,50,0.00
2017,01,04,11,51,0.00
2017,01,04,11,52,0.10
2017,01,04,11,53,0.10
2017,01,04,11,54,0.20
2017,01,04,11,55,0.30
2017,01,04,11,56,0.30
2017,01,04,11,57,0.40
2017,01,04,11,58,0.50
2017,01,04,11,59,0.50
2017,01,04,12,00,0.60
2017,01,04,12,01,0.60
2017,01,04,12,02,0.70
2017,01,04,12,03,0.70
2017,01,04,12,04,0.80
2017,01,04,12,05,0.80
2017,01,04,12,06,0.80
2017,01,04,12,07,0.80
2017,01,04,12,08,0.80
2017,01,04,12,09,0.80
2017,01,04,12,10,0.80
2017,01,04,12,11,0.80
2017,01,04,12,12,0.90
2017,01,04,12,13,0.90
2017,01,04,12,14,0.90
2017,01,04,12,15,0.90
2017,01,04,12,16,1.00
2017,01,04,12,17,1.10
2017,01,04,12,18,1.10
2017,01,04,12,19,1.10
2017,01,04,12,20,1.20
2017,01,04,12,21,1.30
2017,01,04,12,22,1.30
2017,01,04,12,23,1.30
2017,01,04,12,24,1.40
2017,01,04,12,25,1.40
2017,01,04,12,26,1.40
2017,01,04,12,27,1.50
2017,01,04,12,28,1.40
2017,01,04,12,29,1.50
2017,01,04,12,30,1.50
2017,01,04,12,31,1.60
2017,01,04,12,32,1.60
2017,01,04,12,33,1.60
2017,01,04,12,34,1.70
2017,01,04,12,35,1.70
2017,01,04,12,36,1.70
2017,01,04,12,37,1.70
2017,01,04,12,38,1.70
2017,01,04,12,39,1.80
2017,01,04,12,40,1.80
2017,01,04,12,41,1.80
2017,01,04,12,42,1.80
2017,01,04,12,43,1.80
2017,01,04,12,44,1.90
2017,01,04,12,45,2.00
2017,01,04,12,46,2.00
2017,01,04,12,47,2.10
2017,01,04,12,48,2.10
2017,01,04,12,49,2.10
2017,01,04,12,50,2.10
2017,01,04,12,51,2.20
2017,01,04,12,52,2.20
2017,01,04,12,53,2.20
2017,01,04,12,54,2.20
2017,01,04,12,55,2.20
2017,01,04,12,56,2.20
2017,01,04,12,57,2.20
2017,01,04,12,58,2.30
2017,01,04,12,59,2.30
2017,01,04,13,00,2.30
2017,01,04,13,01,2.30
2017,01,04,13,02,2.40
2017,01,04,13,03,2.40
2017,01,04,13,04,2.40
2017,01,04,13,05,2.40
2017,01,04,13,06,2.40
2017,01,04,13,07,2.40
2017,01,04,13,08,2.40
2017,01,04,13,09,2.40
2017,01,04,13,10,2.40
2017,01,04,13,11,2.50
2017,01,04,13,12,2.50
2017,01,04,13,13,2.60
2017,01,04,13,14,2.60
2017,01,04,13,15,2.60
2017,01,04,13,16,2.70
2017,01,04,13,17,2.80
2017,01,04,13,18,2.80
2017,01,04,13,19,2.90
2017,01,04,13,20,3.00
2017,01,04,13,21,3.00
2017,01,04,13,22,3.10
2017,01,04,13,23,3.20
2017,01,04,13,24,3.20
2017,01,04,13,25,3.20
2017,01,04,13,26,3.20
2017,01,04,13,27,3.20
2017,01,04,13,28,3.20
2017,01,04,13,29,3.30
2017,01,04,13,30,3.30
2017,01,04,13,31,3.40
2017,01,04,13,32,3.40
2017,01,04,13,33,3.50
2017,01,04,13,34,3.50
2017,01,04,13,35,3.60
2017,01,04,13,36,3.60
2017,01,04,13,37,3.60
2017,01,04,13,38,3.60
2017,01,04,13,39,3.60
2017,01,04,13,40,3.50
2017,01,04,13,41,3.50
2017,01,04,13,42,3.50
2017,01,04,13,43,3.50
2017,01,04,13,44,3.50
2017,01,04,13,45,3.60
2017,01,04,13,46,3.60
2017,01,04,13,47,3.60
2017,01,04,13,48,3.60
2017,01,04,13,49,3.70
2017,01,04,13,50,3.70
2017,01,04,13,51,3.70
2017,01,04,13,52,3.80
2017,01,04,13,53,3.80
2017,01,04,13,54,3.80
2017,01,04,13,55,3.80
2017,01,04,13,56,3.80
2017,01,04,13,57,3.90
2017,01,04,13,58,3.90
2017,01,04,13,59,4.00
2017,01,04,14,00,4.00
2017,01,04,14,01,4.00
2017,01,04,14,02,4.10
2017,01,04,14,03,4.10
2017,01,04,14,04,4.00
2017,01,04,14,05,4.00
2017,01,04,14,06,4.00
2017,01,04,14,07,4.00
2017,01,04,14,08,3.90
2017,01,04,14,09,4.00
2017,01,04,14,10,4.00
2017,01,04,14,11,4.00
2017,01,04,14,12,4.10
2017,01,04,14,13,4.10
2017,01,04,14,14,4.10
2017,01,04,14,15,4.10
2017,01,04,14,16,4.20
2017,01,04,14,17,4.10
2017,01,04,14,18,4.10
2017,01,04,14,19,4.10
2017,01,04,14,20,4.00
2017,01,04,14,21,4.00
2017,01,04,14,22,4.00
2017,01,04,14,23,3.90
2017,01,04,14,24,3.80
2017,01,04,14,25,3.80
2017,01,04,14,26,3.70
2017,01,04,14,27,3.70
2017,01,04,14,28,3.60
2017,01,04,14,29,3.60
2017,01,04,14,30,3.60
2017,01,04,14,31,3.60
2017,01,04,14,32,3.60
2017,01,04,14,33,3.60
2017,01,04,14,34,3.60
2017,01,04,14,35,3.60
2017,01,04,14,36,3.60
2017,01,04,14,37,3.60
2017,01,04,14,38,3.50
2017,01,04,14,39,3.50
2017,01,04,14,40,3.60
2017,01,04,14,41,3.60
2017,01,04,14,42,3.60
2017,01,04,14,43,3.60
2017,01,04,14,44,3.60
2017,01,04,14,45,3.60
2017,01,04,14,46,3.60
2017,01,04,14,47,3.60
2017,01,04,14,48,3.60
2017,01,04,14,49,3.60
2017,01,04,14,50,3.60
2017,01,04,14,51,3.60
2017,01,04,14,52,3.60
2017,01,04,14,53,3.60
2017,01,04,14,54,3.50
2017,01,04,14,55,3.60
2017,01,04,14,56,3.60
2017,01,04,14,57,3.60
2017,01,04,14,58,3.70
2017,01,04,14,59,3.70
2017,01,04,15,00,3.80
2017,01,04,15,01,3.80
2017,01,04,15,02,3.80
2017,01,04,15,03,3.90
2017,01,04,15,04,3.90
2017,01,04,15,05,4.00
2017,01,04,15,06,4.00
2017,01,04,15,07,4.00
2017,01,04,15,08,4.10
2017,01,04,15,09,4.10
2017,01,04,15,10,4.20
2017,01,04,15,11,4.20
2017,01,04,15,12,4.30
2017,01,04,15,13,4.30
2017,01,04,15,14,4.30
2017,01,04,15,15,4.40
2017,01,04,15,16,4.40
2017,01,04,15,17,4.50
2017,01,04,15,18,4.60
2017,01,04,15,19,4.60
2017,01,04,15,20,4.70
2017,01,04,15,21,4.70
2017,01,04,15,22,4.80
2017,01,04,15,23,4.80
2017,01,04,15,24,4.80
2017,01,04,15,25,4.70
2017,01,04,15,26,4.70
2017,01,04,15,27,4.70
2017,01,04,15,28,4.60
2017,01,04,15,29,4.50
2017,01,04,15,30,4.50
2017,01,04,15,31,4.40
2017,01,04,15,32,4.40
2017,01,04,15,33,4.30
2017,01,04,15,34,4.30
2017,01,04,15,35,4.30
2017,01,04,15,36,4.30
2017,01,04,15,37,4.20
2017,01,04,15,38,4.20
2017,01,04,15,39,4.20
2017,01,04,15,40,4.20
2017,01,04,15,41,4.20
2017,01,04,15,42,4.20
2017,01,04,15,43,4.20
2017,01,04,15,44,4.20
2017,01,04,15,45,4.20
2017,01,04,15,46,4.30
2017,01,04,15,47,4.30
2017,01,04,15,48,4.30
2017,01,04,15,49,4.30
2017,01,04,15,50,4.30
2017,01,04,15,51,4.20
2017,01,04,15,52,4.20
2017,01,04,15,53,4.10
2017,01,04,15,54,4.10
2017,01,04,15,55,4.00
2017,01,04,15,56,3.90
2017,01,04,15,57,3.80
2017,01,04,15,58,3.70
2017,01,04,15,59,3.60
2017,01,04,16,00,3.50
2017,01,04,16,01,3.50
2017,01,04,16,02,3.30
2017,01,04,16,03,3.20
2017,01,04,16,04,3.10
2017,01,04,16,05,3.00
2017,01,04,16,06,2.80
2017,01,04,16,07,2.70
2017,01,04,16,08,2.70
2017,01,04,16,09,2.60
2017,01,04,16,10,2.50
2017,01,04,16,11,2.40
2017,01,04,16,12,2.30
2017,01,04,16,13,2.30
2017,01,04,16,14,2.20
2017,01,04,16,15,2.10
2017,01,04,16,16,2.00
2017,01,04,16,17,2.00
2017,01,04,16,18,1.90
2017,01,04,16,19,1.80
2017,01,04,16,20,1.70
2017,01,04,16,21,1.70
2017,01,04,16,22,1.60
2017,01,04,16,23,1.60
2017,01,04,16,24,1.50
2017,01,04,16,25,1.40
2017,01,04,16,26,1.40
2017,01,04,16,27,1.30
2017,01,04,16,28,1.30
2017,01,04,16,29,1.20
2017,01,04,16,30,1.10
2017,01,04,16,31,1.10
2017,01,04,16,32,1.00
2017,01,04,16,33,0.90
2017,01,04,16,34,0.90
2017,01,04,16,35,0.90
2017,01,04,16,36,0.80
2017,01,04,16,37,0.80
2017,01,04,16,38,0.70
2017,01,04,16,39,0.60
2017,01,04,16,40,0.60
2017,01,04,16,41,0.50
2017,01,04,16,42,0.50
2017,01,04,16,43,0.40
2017,01,04,16,44,0.40
2017,01,04,16,45,0.30
2017,01,04,16,46,0.20
2017,01,04,16,47,0.20
2017,01,04,16,48,0.10
2017,01,04,16,49,0.00
2017,01,04,16,50,-0.10
2017,01,04,16,51,-0.20
2017,01,04,16,52,-0.30
2017,01,04,16,53,-0.40
2017,01,04,16,54,-0.50
2017,01,04,16,55,-0.60
2017,01,04,16,56,-0.70
2017,01,04,16,57,-0.80
2017,01,04,16,58,-0.80
2017,01,04,16,59,-0.90
2017,01,04,17,00,-1.00
2017,01,04,17,01,-1.10
2017,01,04,17,02,-1.10
2017,01,04,17,03,-1.20
2017,01,04,17,04,-1.20
2017,01,04,17,05,-1.20
2017,01,04,17,06,-1.30
2017,01,04,17,07,-1.30
2017,01,04,17,08,-1.40
2017,01,04,17,09,-1.40
2017,01,04,17,10,-1.50
2017,01,04,17,11,-1.50
2017,01,04,17,12,-1.60
2017,01,04,17,13,-1.60
2017,01,04,17,14,-1.60
2017,01,04,17,15,-1.60
2017,01,04,17,16,-1.70
2017,01,04,17,17,-1.70
2017,01,04,17,18,-1.70
2017,01,04,17,19,-1.70
2017,01,04,17,20,-1.80
2017,01,04,17,21,-1.80
2017,01,04,17,22,-1.80
2017,01,04,17,23,-1.80
2017,01,04,17,24,-1.80
2017,01,04,17,25,-1.80
2017,01,04,17,26,-1.80
2017,01,04,17,27,-1.90
2017,01,04,17,28,-1.90